Regional Weather Roundup
Issued by NWS

Home | Current Version | Previous Version | Graphics & Text | Print | Product List | Glossary On
Versions: 1 2 3 4 5 6 7 8 9 10 11 12 13 14 15 16 17 18 19 20 21 22 23 24 25 26 27 28 29 30 31 32 33 34 35 36 37 38 39 40 41 42 43 44 45 46 47 48 49 50
000
ASUS43 KMKX 251011
RWRWI

WISCONSIN REGIONAL WEATHER ROUNDUP
NATIONAL WEATHER SERVICE MILWAUKEE/SULLIVAN WI
500 AM CDT TUE APR 25 2017

NOTE: "FAIR" INDICATES FEW OR NO CLOUDS BELOW 12,000 FEET WITH NO
SIGNIFICANT WEATHER AND/OR OBSTRUCTIONS TO VISIBILITY.

WIZ001-002-006>008-014>016-023>028-251100-
NORTHWEST WISCONSIN

CITY           SKY/WX    TMP DP  RH WIND       PRES   REMARKS
SUPERIOR ARPT  CLOUDY    38  37  95 NE12      29.59S WCI  30
ASHLAND        CLOUDY    41  38  89 SE5       29.59F
HAYWARD        CLOUDY    59  33  37 SE8G17    29.55F
SIREN          CLOUDY    58  35  41 SE7       29.51F
CUMBERLAND     CLOUDY    54  34  47 SE9       29.53F
RICE LAKE      CLOUDY    59  32  36 SE14      29.56S
CHETEK         CLOUDY    58  34  40 SE9       29.55S
LADYSMITH      CLOUDY    58  32  36 SE9       29.59F
EAU CLAIRE     CLOUDY    59  31  34 SE12      29.54F
MENOMONIE      CLOUDY    57  36  44 E8        29.54S
NEW RICHMOND   CLOUDY    58  33  38 SE8       29.51F
OSCEOLA        CLOUDY    59  36  42 SE8       29.52S
$$

WIZ003>005-009-010-017-018-251100-
NORTH CENTRAL WISCONSIN

CITY           SKY/WX    TMP DP  RH WIND       PRES   REMARKS
MANITOWISH WTR CLOUDY    49  34  56 SE6       29.63F
ARBOR VITAE    CLOUDY    52  36  55 SE6       29.64S
WOODRUFF       CLOUDY    52  36  55 SE6       29.64S
RHINELANDER    MOCLDY    52  34  50 SE7       29.66F
EAGLE RIVER    CLOUDY    48  31  52 SE6       29.66F
LAND O LAKES   CLOUDY    49  32  52 SE8       29.68F
PHILLIPS       CLOUDY    52  35  51 SE3       29.61F
TOMAHAWK       PTCLDY    51  33  49 SE3       29.65S
MEDFORD        CLOUDY    53  33  47 SE8       29.62S
MERRILL        CLOUDY    52  34  50 SE9       29.65F
$$

WIZ029-030-035-036-043>047-251100-
CENTRAL WISCONSIN

CITY           SKY/WX    TMP DP  RH WIND       PRES   REMARKS
WAUSAU         CLOUDY    50  34  54 E8        29.64F
MOSINEE        PTCLDY    54  32  43 SE15      29.65F
MARSHFIELD     MOCLDY    55  33  43 SE9       29.62S
STEVENS POINT  CLOUDY    54  32  44 SE8       29.66S
WAUPACA        CLEAR     52  36  53 E7        29.68F
WAUTOMA        CLEAR     54  36  50 SE3       29.67F
WISC RAPIDS    MOCLDY    56  35  45 SE8       29.64F
CAMP DOUGLAS   CLOUDY    52  35  54 SE7       29.62F
$$

WIZ011>013-019>022-031-037>040-048>050-251100-
NORTHEAST WISCONSIN

CITY           SKY/WX    TMP DP  RH WIND       PRES   REMARKS
ANTIGO         CLOUDY    46  34  62 SE15      29.69S
SHAWANO        CLOUDY    52  35  52 SE5       29.70F
OCONTO         CLOUDY    50  39  65 SE6       29.72F
STURGEON BAY   PTCLDY    49  39  68 SE10      29.75F
GREEN BAY      CLOUDY    52  38  58 SE10      29.71F
MANITOWOC      CLOUDY    50  37  61 S13       29.74F
APPLETON       CLOUDY    50  32  50 SE7       29.67F
CLINTONVILLE   CLOUDY    52  32  46 SE7       29.69F
OSHKOSH        CLOUDY    53  36  52 SE8       29.68F
$$

WIZ032>034-041-042-053>061-251100-
SOUTHWEST WISCONSIN

CITY           SKY/WX    TMP DP  RH WIND       PRES   REMARKS
LA CROSSE      CLOUDY    60  32  34 SE10      29.57F
SPARTA         CLOUDY    59  34  38 SE9       29.60F
VIROQUA        CLOUDY    53  33  46 SE8       29.61S
BOSCOBEL       MOCLDY    56  35  45 VRB3      29.61F
PRAIRIE DU CHI PTCLDY    54  32  44 E5        29.59S
PLATTEVILLE    CLEAR     51  37  59 SE9       29.62F
$$

WIZ056-057-062-063-064-067-068-251100-
SOUTH CENTRAL WISCONSIN

CITY           SKY/WX    TMP DP  RH WIND       PRES   REMARKS
REEDSBURG      CLOUDY    56  37  48 SE6       29.62F
BARABOO/DELLS  CLOUDY    55  35  46 S6        29.64S
LONE ROCK      CLOUDY    53  38  56 E8        29.62F
MINERAL POINT  CLOUDY    52  36  54 SE9       29.63F
MADISON        CLOUDY    56  37  49 S10       29.66F
MIDDLETON      CLOUDY    57  38  49 SE13      29.66F
WATERTOWN      PTCLDY    54  40  60 SE7       29.68S
MONROE         CLOUDY    52  37  58 SE10      29.65F
JANESVILLE     CLOUDY    54  37  54 SE9       29.67S
$$

WIZ051-052-058>065-066-070>072-251100-
SOUTHEAST WISCONSIN

CITY           SKY/WX    TMP DP  RH WIND       PRES   REMARKS
MILWAUKEE      PTCLDY    51  40  65 SE10      29.71F
WAUKESHA       PTCLDY    50  37  62 SE7       29.72F
MILWAUKEE/TIMM PTCLDY    52  36  54 SE6       29.72F
RACINE         CLEAR     50  40  68 SE12      29.74F
KENOSHA        CLEAR     51  41  68 SE8       29.71F
FOND DU LAC    PTCLDY    53  35  50 SE14      29.68F
SHEBOYGAN      PTCLDY    50  38  63 SE7       29.73F
WEST BEND      PTCLDY    50  36  57 SE6       29.71F
JUNEAU         CLOUDY    51  39  63 SE6       29.70S
$$

LSZ147-162-251100-
LAKE SUPERIOR

STATION/POSITION TIME  TEMP    WIND        PRES    WAVE
                       AIR SEA DIR/SP/G            HT/PER
                 (UTC) (F)     (DEG/KT/KT) (MB)    (FT/S)
DEVILS ISLAND    1000   38      50/ 16/ 18 1003.2F
PORT WING        0930   38      40/  8/  9 1002.7F
SAXON HARBOR     0930   42     320/  9/ 11 1003.4R
$$

LMZ867-665-643>646-251100-
LAKE MICHIGAN

STATION/POSITION TIME  TEMP    WIND        PRES    WAVE
                       AIR SEA DIR/SP/G            HT/PER
                 (UTC) (F)     (DEG/KT/KT) (MB)    (FT/S)
CHAMBERS ISLAND  0940   53     120/  9/ 17 1006.8F
N MID LAKE BUOY  0950   42 37  110/ 17/ 21 1008.6F   2/ 4
NORTHPORT PIER   0940   47     160/  8/ 12 1008.1R
SISTER BAY       0906   51     170/ 12/ 17   N/A
KEWAUNEE LAKESHO 0948   47     120/  3/  5 1006.9F
SHEBOYGAN LAKESH 1000   48     170/  8/  9 1007.0F
PORT WASHINGTON  0940   48     170/  2/  4 1007.8F
MILWAUKEE LAKESH 0950   48     160/  3/  5   N/A
S MID LAKE BUOY  0950   46 41  100/ 12/ 12 1007.7F   1/ 3
KENOSHA   LAKESH 1000   47     160/ 10/ 13 1006.4
$$

TC  - TEMPERATURE IN CELSIUS
VSB - VISIBILITY IN STATUTE MILES
WCI - WIND CHILL INDEX
HX  - HEAT INDEX





USA.gov is the U.S. government's official web portal to all federal, state and local government web resources and services.